| time (UTC) | temp F | wind direction | speed MPH | gust MPH | rain 1hr in | rain 24hr in | rain mn in | humidity % | barometer mb |
| 20260506084623 | 77 | 0 | 0.0 | 4.0 | 0.00 | 0.00 | 0.00 | 55 | 1009.5 |
| 20260506084539 | 77 | 190 | 0.0 | 2.0 | 0.00 | 0.00 | 0.00 | 55 | 1009.9 |
| 20260506084035 | 78 | 190 | 0.0 | 4.0 | 0.00 | 0.00 | 0.00 | 55 | 1009.8 |
| 20260506083534 | 78 | 190 | 2.0 | 4.0 | 0.00 | 0.00 | 0.00 | 54 | 1009.9 |
| 20260506083059 | 79 | 190 | 0.0 | 2.0 | 0.00 | 0.00 | 0.00 | 52 | 1009.5 |
| 20260506083033 | 79 | 190 | 0.0 | 2.0 | 0.00 | 0.00 | 0.00 | 53 | 1009.8 |
| 20260506082531 | 80 | 190 | 0.0 | 2.0 | 0.00 | 0.00 | 0.00 | 57 | 1009.8 |
| 20260506082031 | 80 | 190 | 0.0 | 3.0 | 0.00 | 0.00 | 0.00 | 56 | 1009.9 |
| 20260506081611 | 80 | 190 | 0.0 | 2.0 | 0.00 | 0.00 | 0.00 | 56 | 1009.5 |
| 20260506081531 | 80 | 190 | 0.0 | 2.0 | 0.00 | 0.00 | 0.00 | 56 | 1009.8 |
| 20260506081030 | 80 | 190 | 0.0 | 0.0 | 0.00 | 0.00 | 0.00 | 56 | 1009.8 |
| 20260506080530 | 80 | 190 | 0.0 | 0.0 | 0.00 | 0.00 | 0.00 | 56 | 1009.8 |
| 20260506073529 | 81 | 190 | 0.0 | 4.0 | 0.00 | 0.00 | 0.00 | 55 | 1009.9 |
| 20260506073058 | 81 | 0 | 1.0 | 4.0 | 0.00 | 0.00 | 0.00 | 54 | 1009.6 |
| 20260506073025 | 81 | 190 | 1.0 | 4.0 | 0.00 | 0.00 | 0.00 | 54 | 1009.9 |
| 20260506072524 | 81 | 190 | 0.0 | 0.0 | 0.00 | 0.00 | 0.00 | 54 | 1010.0 |
| 20260506072023 | 81 | 190 | 0.0 | 0.0 | 0.00 | 0.00 | 0.00 | 53 | 1010.0 |
| 20260506071559 | 81 | 0 | 0.0 | 1.0 | 0.00 | 0.00 | 0.00 | 52 | 1009.8 |
| 20260506071523 | 81 | 190 | 0.0 | 0.0 | 0.00 | 0.00 | 0.00 | 52 | 1010.0 |
| 20260506071022 | 81 | 190 | 0.0 | 1.0 | 0.00 | 0.00 | 0.00 | 50 | 1010.0 |
| 20260506070522 | 81 | 190 | 0.0 | 2.0 | 0.00 | 0.00 | 0.00 | 50 | 1010.1 |
| 20260506062020 | 83 | 190 | 0.0 | 3.0 | 0.00 | 0.00 | 0.00 | 43 | 1010.2 |
| 20260506061559 | 83 | 0 | 0.0 | 5.0 | 0.00 | 0.00 | 0.00 | 45 | 1009.8 |
| 20260506061519 | 83 | 190 | 0.0 | 5.0 | 0.00 | 0.00 | 0.00 | 47 | 1010.2 |
| 20260506061018 | 83 | 190 | 1.0 | 5.0 | 0.00 | 0.00 | 0.00 | 47 | 1010.2 |
| 20260506060518 | 83 | 190 | 0.0 | 2.0 | 0.00 | 0.00 | 0.00 | 44 | 1010.2 |
| 20260506051015 | 83 | 190 | 0.0 | 0.0 | 0.00 | 0.00 | 0.00 | 38 | 1010.0 |
| 20260506050515 | 84 | 190 | 0.0 | 0.0 | 0.00 | 0.00 | 0.00 | 37 | 1009.9 |
| 20260506050116 | 84 | 0 | 0.0 | 0.0 | 0.00 | 0.00 | 0.00 | 37 | 1009.4 |
| 20260506045014 | 85 | 190 | 0.0 | 0.0 | 0.00 | 0.00 | 0.00 | 37 | 1009.7 |
| 20260506044601 | 85 | 0 | 0.0 | 0.0 | 0.00 | 0.00 | 0.00 | 35 | 1009.2 |
| 20260506044515 | 85 | 190 | 0.0 | 0.0 | 0.00 | 0.00 | 0.00 | 36 | 1009.6 |
| 20260506044114 | 85 | 190 | 0.0 | 0.0 | 0.00 | 0.00 | 0.00 | 35 | 1009.6 |
| 20260506043516 | 85 | 190 | 0.0 | 0.0 | 0.00 | 0.00 | 0.00 | 35 | 1009.6 |
| 20260506043100 | 85 | 0 | 0.0 | 0.0 | 0.00 | 0.00 | 0.00 | 34 | 1009.1 |
| 20260506043014 | 85 | 190 | 0.0 | 0.0 | 0.00 | 0.00 | 0.00 | 35 | 1009.5 |
| 20260506042514 | 86 | 190 | 0.0 | 0.0 | 0.00 | 0.00 | 0.00 | 34 | 1009.5 |
| 20260506042021 | 86 | 190 | 0.0 | 0.0 | 0.00 | 0.00 | 0.00 | 33 | 1009.5 |
| 20260506041605 | 86 | 0 | 0.0 | 0.0 | 0.00 | 0.00 | 0.00 | 32 | 1008.9 |
| 20260506041513 | 86 | 190 | 0.0 | 0.0 | 0.00 | 0.00 | 0.00 | 34 | 1009.3 |
| 20260506041020 | 87 | 190 | 0.0 | 0.0 | 0.00 | 0.00 | 0.00 | 33 | 1009.2 |
| 20260506040513 | 86 | 190 | 0.0 | 0.0 | 0.00 | 0.00 | 0.00 | 32 | 1009.1 |
| 20260506040100 | 86 | 0 | 0.0 | 0.0 | 0.00 | 0.00 | 0.00 | 31 | 1008.6 |
| 20260506040013 | 86 | 190 | 0.0 | 0.0 | 0.00 | 0.00 | 0.00 | 31 | 1009.0 |
| 20260506035513 | 86 | 190 | 0.0 | 0.0 | 0.00 | 0.00 | 0.00 | 32 | 1008.8 |
| 20260506035013 | 86 | 190 | 0.0 | 0.0 | 0.00 | 0.00 | 0.00 | 32 | 1008.8 |
| 20260506034602 | 87 | 0 | 0.0 | 0.0 | 0.00 | 0.00 | 0.00 | 31 | 1008.4 |
| 20260506034511 | 87 | 190 | 0.0 | 0.0 | 0.00 | 0.00 | 0.00 | 32 | 1008.7 |
| 20260506034011 | 87 | 190 | 0.0 | 0.0 | 0.00 | 0.00 | 0.00 | 31 | 1008.7 |
| 20260506033514 | 88 | 190 | 0.0 | 0.0 | 0.00 | 0.00 | 0.00 | 30 | 1008.6 |
| 20260506033058 | 88 | 0 | 0.0 | 0.0 | 0.00 | 0.00 | 0.00 | 30 | 1008.2 |
| 20260506033020 | 88 | 190 | 0.0 | 0.0 | 0.00 | 0.00 | 0.00 | 31 | 1008.5 |
| 20260506032511 | 88 | 190 | 0.0 | 0.0 | 0.00 | 0.00 | 0.00 | 29 | 1008.4 |
| 20260506032011 | 88 | 190 | 0.0 | 0.0 | 0.00 | 0.00 | 0.00 | 30 | 1008.3 |
| 20260506031558 | 89 | 0 | 0.0 | 0.0 | 0.00 | 0.00 | 0.00 | 29 | 1008.0 |
| 20260506031522 | 89 | 190 | 0.0 | 0.0 | 0.00 | 0.00 | 0.00 | 29 | 1008.1 |
| 20260506031012 | 89 | 190 | 0.0 | 0.0 | 0.00 | 0.00 | 0.00 | 29 | 1008.0 |
| 20260506030511 | 89 | 190 | 0.0 | 0.0 | 0.00 | 0.00 | 0.00 | 29 | 1007.9 |
| 20260506030059 | 89 | 0 | 0.0 | 1.0 | 0.00 | 0.00 | 0.00 | 29 | 1007.6 |
| 20260506030010 | 89 | 190 | 0.0 | 1.0 | 0.00 | 0.00 | 0.00 | 29 | 1007.8 |
| 20260506025510 | 89 | 190 | 0.0 | 1.0 | 0.00 | 0.00 | 0.00 | 29 | 1007.7 |
| 20260506025010 | 90 | 190 | 0.0 | 0.0 | 0.00 | 0.00 | 0.00 | 28 | 1007.7 |
| 20260506024610 | 90 | 0 | 0.0 | 0.0 | 0.00 | 0.00 | 0.00 | 28 | 1007.3 |
| 20260506024510 | 90 | 190 | 0.0 | 0.0 | 0.00 | 0.00 | 0.00 | 28 | 1007.5 |
| 20260506024009 | 90 | 190 | 0.0 | 0.0 | 0.00 | 0.00 | 0.00 | 28 | 1007.4 |
| 20260506023510 | 90 | 190 | 0.0 | 0.0 | 0.00 | 0.00 | 0.00 | 28 | 1007.3 |
| 20260506023112 | 90 | 0 | 0.0 | 0.0 | 0.00 | 0.00 | 0.00 | 27 | 1007.1 |
| 20260506023010 | 90 | 190 | 0.0 | 0.0 | 0.00 | 0.00 | 0.00 | 28 | 1007.3 |
| 20260506022513 | 91 | 190 | 0.0 | 0.0 | 0.00 | 0.00 | 0.00 | 28 | 1007.2 |
| 20260506022013 | 91 | 190 | 0.0 | 0.0 | 0.00 | 0.00 | 0.00 | 27 | 1007.1 |
| 20260506021605 | 92 | 0 | 0.0 | 2.0 | 0.00 | 0.00 | 0.00 | 26 | 1006.8 |
| 20260506021509 | 91 | 190 | 0.0 | 2.0 | 0.00 | 0.00 | 0.00 | 27 | 1007.0 |
| 20260506021011 | 92 | 190 | 0.0 | 2.0 | 0.00 | 0.00 | 0.00 | 27 | 1006.9 |
| 20260506020508 | 92 | 190 | 0.0 | 2.0 | 0.00 | 0.00 | 0.00 | 26 | 1006.9 |
| 20260506020100 | 93 | 0 | 0.0 | 1.0 | 0.00 | 0.00 | 0.00 | 26 | 1006.6 |
| 20260506020014 | 93 | 190 | 0.0 | 1.0 | 0.00 | 0.00 | 0.00 | 26 | 1006.7 |
| 20260506015510 | 93 | 190 | 0.0 | 1.0 | 0.00 | 0.00 | 0.00 | 26 | 1006.7 |
| 20260506015008 | 93 | 190 | 0.0 | 2.0 | 0.00 | 0.00 | 0.00 | 26 | 1006.6 |
| 20260506014559 | 94 | 0 | 0.0 | 5.0 | 0.00 | 0.00 | 0.00 | 25 | 1006.4 |
| 20260506014507 | 94 | 190 | 0.0 | 5.0 | 0.00 | 0.00 | 0.00 | 25 | 1006.5 |
| 20260506014007 | 94 | 190 | 1.0 | 5.0 | 0.00 | 0.00 | 0.00 | 25 | 1006.4 |
| 20260506013510 | 94 | 190 | 1.0 | 4.0 | 0.00 | 0.00 | 0.00 | 25 | 1006.3 |
| 20260506013105 | 95 | 0 | 1.0 | 4.0 | 0.00 | 0.00 | 0.00 | 24 | 1006.0 |
| 20260506013008 | 95 | 190 | 1.0 | 4.0 | 0.00 | 0.00 | 0.00 | 25 | 1006.2 |
| 20260506012507 | 95 | 190 | 1.0 | 4.0 | 0.00 | 0.00 | 0.00 | 25 | 1006.2 |
| 20260506012107 | 95 | 190 | 0.0 | 5.0 | 0.00 | 0.00 | 0.00 | 24 | 1006.2 |
| 20260506011606 | 96 | 0 | 3.0 | 9.0 | 0.00 | 0.00 | 0.00 | 24 | 1006.0 |
| 20260506011511 | 96 | 190 | 2.0 | 9.0 | 0.00 | 0.00 | 0.00 | 24 | 1006.1 |
| 20260506011006 | 96 | 190 | 1.0 | 9.0 | 0.00 | 0.00 | 0.00 | 24 | 1006.0 |
| 20260506010506 | 96 | 190 | 2.0 | 8.0 | 0.00 | 0.00 | 0.00 | 24 | 1006.0 |
| 20260506010100 | 97 | 190 | 2.0 | 9.0 | 0.00 | 0.00 | 0.00 | 23 | 1005.9 |
| 20260506010017 | 96 | 190 | 2.0 | 9.0 | 0.00 | 0.00 | 0.00 | 24 | 1005.9 |
| 20260506005506 | 97 | 190 | 4.0 | 9.0 | 0.00 | 0.00 | 0.00 | 23 | 1005.8 |
| 20260506005006 | 97 | 190 | 3.0 | 10.0 | 0.00 | 0.00 | 0.00 | 23 | 1005.8 |
| 20260506004604 | 98 | 190 | 4.0 | 10.0 | 0.00 | 0.00 | 0.00 | 23 | 1005.6 |
| 20260506004506 | 98 | 190 | 4.0 | 10.0 | 0.00 | 0.00 | 0.00 | 23 | 1005.7 |
| 20260506004005 | 98 | 190 | 1.0 | 10.0 | 0.00 | 0.00 | 0.00 | 23 | 1005.6 |
| 20260506003505 | 98 | 190 | 2.0 | 7.0 | 0.00 | 0.00 | 0.00 | 23 | 1005.5 |
| 20260506003100 | 98 | 190 | 2.0 | 11.0 | 0.00 | 0.00 | 0.00 | 22 | 1005.3 |
| 20260506003005 | 98 | 190 | 1.0 | 11.0 | 0.00 | 0.00 | 0.00 | 23 | 1005.4 |
| 20260506002504 | 98 | 190 | 4.0 | 12.0 | 0.00 | 0.00 | 0.00 | 23 | 1005.3 |
| 20260506002004 | 99 | 190 | 5.0 | 12.0 | 0.00 | 0.00 | 0.00 | 22 | 1005.2 |
| 20260506001601 | 99 | 190 | 3.0 | 7.0 | 0.00 | 0.00 | 0.00 | 22 | 1005.1 |
| 20260506001504 | 99 | 190 | 2.0 | 7.0 | 0.00 | 0.00 | 0.00 | 23 | 1005.2 |
| 20260506001004 | 99 | 190 | 4.0 | 8.0 | 0.00 | 0.00 | 0.00 | 22 | 1005.1 |
| 20260506000505 | 99 | 190 | 2.0 | 8.0 | 0.00 | 0.00 | 0.00 | 23 | 1005.0 |
| 20260506000105 | 100 | 190 | 1.0 | 10.0 | 0.00 | 0.00 | 0.00 | 22 | 1004.9 |
| 20260506000005 | 100 | 190 | 1.0 | 10.0 | 0.00 | 0.00 | 0.00 | 22 | 1004.9 |
| 20260505235503 | 100 | 190 | 4.0 | 10.0 | 0.00 | 0.00 | 0.00 | 23 | 1004.9 |
| 20260505235003 | 100 | 190 | 5.0 | 10.0 | 0.00 | 0.00 | 0.00 | 22 | 1004.9 |
| 20260505234557 | 101 | 190 | 2.0 | 8.0 | 0.00 | 0.00 | 0.00 | 22 | 1004.9 |
| 20260505234503 | 100 | 190 | 2.0 | 8.0 | 0.00 | 0.00 | 0.00 | 23 | 1004.9 |
| 20260505234002 | 100 | 190 | 3.0 | 8.0 | 0.00 | 0.00 | 0.00 | 22 | 1004.9 |
| 20260505233501 | 101 | 190 | 0.0 | 7.0 | 0.00 | 0.00 | 0.00 | 22 | 1004.9 |
| 20260505233059 | 101 | 190 | 1.0 | 7.0 | 0.00 | 0.00 | 0.00 | 22 | 1004.9 |
| 20260505233005 | 101 | 190 | 0.0 | 7.0 | 0.00 | 0.00 | 0.00 | 22 | 1004.9 |
| 20260505232502 | 101 | 190 | 0.0 | 4.0 | 0.00 | 0.00 | 0.00 | 22 | 1005.0 |
| 20260505232103 | 101 | 190 | 0.0 | 7.0 | 0.00 | 0.00 | 0.00 | 22 | 1005.0 |
| 20260505231600 | 100 | 190 | 3.0 | 10.0 | 0.00 | 0.00 | 0.00 | 22 | 1005.0 |
| 20260505231558 | 100 | 190 | 2.0 | 10.0 | 0.00 | 0.00 | 0.00 | 22 | 1005.0 |
| 20260505231100 | 100 | 190 | 3.0 | 10.0 | 0.00 | 0.00 | 0.00 | 23 | 1005.1 |
| 20260505230559 | 100 | 190 | 4.0 | 8.0 | 0.00 | 0.00 | 0.00 | 23 | 1005.0 |
| 20260505230122 | 100 | 190 | 0.0 | 7.0 | 0.00 | 0.00 | 0.00 | 22 | 1005.2 |
| 20260505230100 | 100 | 190 | 2.0 | 8.0 | 0.00 | 0.00 | 0.00 | 23 | 1005.1 |
| 20260505225558 | 100 | 190 | 2.0 | 7.0 | 0.00 | 0.00 | 0.00 | 23 | 1005.2 |
| 20260505225057 | 101 | 190 | 2.0 | 8.0 | 0.00 | 0.00 | 0.00 | 22 | 1005.2 |
| 20260505224559 | 100 | 190 | 1.0 | 8.0 | 0.00 | 0.00 | 0.00 | 22 | 1005.3 |
| 20260505224056 | 100 | 190 | 2.0 | 15.0 | 0.00 | 0.00 | 0.00 | 22 | 1005.4 |
| 20260505223557 | 100 | 190 | 8.0 | 15.0 | 0.00 | 0.00 | 0.00 | 22 | 1005.4 |
| 20260505223057 | 100 | 190 | 2.0 | 7.0 | 0.00 | 0.00 | 0.00 | 23 | 1005.4 |
| 20260505222555 | 100 | 190 | 2.0 | 10.0 | 0.00 | 0.00 | 0.00 | 23 | 1005.5 |
| 20260505222055 | 100 | 190 | 6.0 | 10.0 | 0.00 | 0.00 | 0.00 | 23 | 1005.6 |
| 20260505221602 | 100 | 190 | 1.0 | 9.0 | 0.00 | 0.00 | 0.00 | 22 | 1005.6 |
| 20260505221555 | 100 | 190 | 4.0 | 8.0 | 0.00 | 0.00 | 0.00 | 23 | 1005.7 |
| 20260505221053 | 100 | 190 | 2.0 | 9.0 | 0.00 | 0.00 | 0.00 | 23 | 1005.8 |
| 20260505220552 | 100 | 190 | 1.0 | 14.0 | 0.00 | 0.00 | 0.00 | 23 | 1005.9 |
| 20260505220052 | 100 | 190 | 1.0 | 15.0 | 0.00 | 0.00 | 0.00 | 23 | 1006.0 |
| 20260505215653 | 100 | 190 | 5.0 | 15.0 | 0.00 | 0.00 | 0.00 | 23 | 1006.0 |
| 20260505215051 | 101 | 190 | 2.0 | 7.0 | 0.00 | 0.00 | 0.00 | 23 | 1006.0 |
| 20260505214605 | 101 | 190 | 2.0 | 7.0 | 0.00 | 0.00 | 0.00 | 22 | 1006.1 |
| 20260505214049 | 100 | 190 | 3.0 | 7.0 | 0.00 | 0.00 | 0.00 | 24 | 1006.2 |
| 20260505213547 | 100 | 190 | 1.0 | 4.0 | 0.00 | 0.00 | 0.00 | 24 | 1006.3 |
| 20260505213058 | 99 | 0 | 0.0 | 9.0 | 0.00 | 0.00 | 0.00 | 24 | 1006.4 |
| 20260505213047 | 99 | 190 | 0.0 | 9.0 | 0.00 | 0.00 | 0.00 | 24 | 1006.3 |
| 20260505212547 | 99 | 190 | 3.0 | 9.0 | 0.00 | 0.00 | 0.00 | 24 | 1006.7 |
| 20260505212044 | 99 | 190 | 1.0 | 9.0 | 0.00 | 0.00 | 0.00 | 24 | 1006.6 |
| 20260505211603 | 99 | 190 | 5.0 | 12.0 | 0.00 | 0.00 | 0.00 | 24 | 1006.6 |
| 20260505211546 | 99 | 190 | 4.0 | 12.0 | 0.00 | 0.00 | 0.00 | 24 | 1006.7 |
| 20260505211043 | 99 | 190 | 5.0 | 12.0 | 0.00 | 0.00 | 0.00 | 24 | 1006.8 |
| 20260505210543 | 99 | 190 | 7.0 | 12.0 | 0.00 | 0.00 | 0.00 | 24 | 1006.9 |
| 20260505210105 | 99 | 190 | 2.0 | 8.0 | 0.00 | 0.00 | 0.00 | 24 | 1006.8 |
| 20260505210043 | 99 | 190 | 1.0 | 8.0 | 0.00 | 0.00 | 0.00 | 24 | 1006.9 |
| 20260505205540 | 99 | 190 | 1.0 | 14.0 | 0.00 | 0.00 | 0.00 | 24 | 1007.1 |
| 20260505205039 | 99 | 190 | 5.0 | 14.0 | 0.00 | 0.00 | 0.00 | 24 | 1007.1 |
| 20260505204605 | 99 | 190 | 2.0 | 12.0 | 0.00 | 0.00 | 0.00 | 24 | 1007.1 |
| 20260505204538 | 99 | 190 | 3.0 | 8.0 | 0.00 | 0.00 | 0.00 | 24 | 1007.3 |
| 20260505204037 | 99 | 190 | 3.0 | 12.0 | 0.00 | 0.00 | 0.00 | 24 | 1007.3 |
| 20260505203536 | 99 | 190 | 5.0 | 12.0 | 0.00 | 0.00 | 0.00 | 24 | 1007.3 |
| 20260505203107 | 98 | 190 | 2.0 | 9.0 | 0.00 | 0.00 | 0.00 | 24 | 1007.3 |
| 20260505203038 | 98 | 190 | 2.0 | 7.0 | 0.00 | 0.00 | 0.00 | 24 | 1007.6 |
| 20260505202533 | 98 | 190 | 4.0 | 11.0 | 0.00 | 0.00 | 0.00 | 24 | 1007.8 |
| 20260505202033 | 98 | 190 | 4.0 | 11.0 | 0.00 | 0.00 | 0.00 | 24 | 1007.9 |
| 20260505201559 | 98 | 190 | 2.0 | 7.0 | 0.00 | 0.00 | 0.00 | 24 | 1007.7 |
| 20260505201542 | 98 | 190 | 2.0 | 9.0 | 0.00 | 0.00 | 0.00 | 24 | 1008.0 |
| 20260505201031 | 97 | 190 | 1.0 | 10.0 | 0.00 | 0.00 | 0.00 | 24 | 1008.0 |
| 20260505200530 | 98 | 190 | 3.0 | 10.0 | 0.00 | 0.00 | 0.00 | 24 | 1008.2 |
| 20260505200110 | 98 | 190 | 4.0 | 10.0 | 0.00 | 0.00 | 0.00 | 23 | 1008.1 |
| 20260505200032 | 98 | 190 | 5.0 | 10.0 | 0.00 | 0.00 | 0.00 | 24 | 1008.3 |
| 20260505195527 | 98 | 190 | 0.0 | 5.0 | 0.00 | 0.00 | 0.00 | 24 | 1008.3 |
| 20260505195027 | 97 | 190 | 1.0 | 8.0 | 0.00 | 0.00 | 0.00 | 24 | 1008.5 |
| 20260505194558 | 97 | 190 | 3.0 | 14.0 | 0.00 | 0.00 | 0.00 | 24 | 1008.6 |
| 20260505194526 | 97 | 190 | 3.0 | 14.0 | 0.00 | 0.00 | 0.00 | 24 | 1008.7 |
| 20260505194025 | 97 | 190 | 3.0 | 9.0 | 0.00 | 0.00 | 0.00 | 25 | 1008.8 |
| 20260505193523 | 96 | 190 | 4.0 | 9.0 | 0.00 | 0.00 | 0.00 | 25 | 1008.9 |
| 20260505193104 | 96 | 190 | 4.0 | 11.0 | 0.00 | 0.00 | 0.00 | 25 | 1008.9 |
| 20260505193022 | 96 | 190 | 4.0 | 10.0 | 0.00 | 0.00 | 0.00 | 25 | 1009.1 |
| 20260505192525 | 96 | 190 | 2.0 | 12.0 | 0.00 | 0.00 | 0.00 | 26 | 1009.2 |
| 20260505192021 | 96 | 190 | 4.0 | 12.0 | 0.00 | 0.00 | 0.00 | 26 | 1009.2 |
| 20260505191608 | 96 | 190 | 3.0 | 12.0 | 0.00 | 0.00 | 0.00 | 26 | 1009.2 |
| 20260505191520 | 96 | 190 | 3.0 | 12.0 | 0.00 | 0.00 | 0.00 | 26 | 1009.4 |
| 20260505191019 | 97 | 190 | 6.0 | 12.0 | 0.00 | 0.00 | 0.00 | 26 | 1009.5 |
| 20260505190522 | 96 | 190 | 1.0 | 5.0 | 0.00 | 0.00 | 0.00 | 27 | 1009.6 |
| 20260505190058 | 95 | 0 | 1.0 | 10.0 | 0.00 | 0.00 | 0.00 | 27 | 1009.4 |
| 20260505190026 | 95 | 190 | 0.0 | 5.0 | 0.00 | 0.00 | 0.00 | 27 | 1009.6 |
| 20260505185516 | 95 | 190 | 1.0 | 10.0 | 0.00 | 0.00 | 0.00 | 27 | 1009.8 |
| 20260505185015 | 95 | 190 | 4.0 | 12.0 | 0.00 | 0.00 | 0.00 | 27 | 1009.9 |
| 20260505184559 | 95 | 190 | 3.0 | 10.0 | 0.00 | 0.00 | 0.00 | 27 | 1009.8 |
| 20260505184514 | 95 | 190 | 4.0 | 10.0 | 0.00 | 0.00 | 0.00 | 27 | 1010.1 |
| 20260505184013 | 95 | 190 | 4.0 | 10.0 | 0.00 | 0.00 | 0.00 | 27 | 1010.2 |
| 20260505183511 | 95 | 190 | 4.0 | 11.0 | 0.00 | 0.00 | 0.00 | 28 | 1010.3 |
| 20260505183057 | 95 | 190 | 4.0 | 11.0 | 0.00 | 0.00 | 0.00 | 28 | 1010.1 |
| 20260505183010 | 95 | 190 | 3.0 | 11.0 | 0.00 | 0.00 | 0.00 | 28 | 1010.5 |
| 20260505182511 | 94 | 190 | 1.0 | 10.0 | 0.00 | 0.00 | 0.00 | 29 | 1010.5 |
| 20260505182009 | 93 | 190 | 1.0 | 11.0 | 0.00 | 0.00 | 0.00 | 29 | 1010.7 |
| 20260505181559 | 93 | 190 | 4.0 | 11.0 | 0.00 | 0.00 | 0.00 | 29 | 1010.5 |
| 20260505181509 | 93 | 190 | 2.0 | 11.0 | 0.00 | 0.00 | 0.00 | 29 | 1010.8 |
| 20260505181009 | 94 | 190 | 5.0 | 10.0 | 0.00 | 0.00 | 0.00 | 29 | 1010.9 |
| 20260505180508 | 94 | 190 | 1.0 | 5.0 | 0.00 | 0.00 | 0.00 | 29 | 1011.0 |
| 20260505180057 | 93 | 190 | 0.0 | 7.0 | 0.00 | 0.00 | 0.00 | 30 | 1010.7 |
| 20260505180006 | 93 | 190 | 0.0 | 7.0 | 0.00 | 0.00 | 0.00 | 31 | 1011.1 |
| 20260505175505 | 92 | 190 | 2.0 | 7.0 | 0.00 | 0.00 | 0.00 | 31 | 1011.1 |
| 20260505175011 | 92 | 190 | 2.0 | 7.0 | 0.00 | 0.00 | 0.00 | 30 | 1011.3 |
| 20260505174606 | 92 | 0 | 2.0 | 8.0 | 0.00 | 0.00 | 0.00 | 30 | 1010.9 |
| 20260505174506 | 92 | 190 | 2.0 | 8.0 | 0.00 | 0.00 | 0.00 | 30 | 1011.3 |
| 20260505174007 | 93 | 190 | 3.0 | 8.0 | 0.00 | 0.00 | 0.00 | 30 | 1011.5 |
| 20260505173503 | 92 | 190 | 2.0 | 9.0 | 0.00 | 0.00 | 0.00 | 30 | 1011.5 |
| 20260505173058 | 92 | 190 | 4.0 | 9.0 | 0.00 | 0.00 | 0.00 | 31 | 1011.1 |
| 20260505173001 | 91 | 190 | 3.0 | 9.0 | 0.00 | 0.00 | 0.00 | 31 | 1011.5 |
| 20260505172501 | 91 | 190 | 0.0 | 9.0 | 0.00 | 0.00 | 0.00 | 32 | 1011.7 |
| 20260505172001 | 91 | 190 | 2.0 | 9.0 | 0.00 | 0.00 | 0.00 | 32 | 1011.8 |
| 20260505171603 | 91 | 190 | 1.0 | 7.0 | 0.00 | 0.00 | 0.00 | 33 | 1011.9 |
| 20260505171557 | 91 | 190 | 0.0 | 9.0 | 0.00 | 0.00 | 0.00 | 32 | 1011.3 |
| 20260505171059 | 91 | 190 | 3.0 | 9.0 | 0.00 | 0.00 | 0.00 | 33 | 1011.9 |
| 20260505170558 | 91 | 190 | 1.0 | 9.0 | 0.00 | 0.00 | 0.00 | 34 | 1012.0 |
| 20260505170058 | 90 | 190 | 2.0 | 8.0 | 0.00 | 0.00 | 0.00 | 34 | 1012.1 |
| 20260505165558 | 90 | 190 | 0.0 | 7.0 | 0.00 | 0.00 | 0.00 | 35 | 1012.2 |
| 20260505165056 | 89 | 190 | 2.0 | 9.0 | 0.00 | 0.00 | 0.00 | 35 | 1012.3 |
| 20260505164601 | 89 | 190 | 3.0 | 7.0 | 0.00 | 0.00 | 0.00 | 35 | 1012.0 |
| 20260505164555 | 89 | 190 | 3.0 | 7.0 | 0.00 | 0.00 | 0.00 | 35 | 1012.4 |
| 20260505164053 | 89 | 190 | 0.0 | 7.0 | 0.00 | 0.00 | 0.00 | 36 | 1012.5 |
| 20260505163552 | 89 | 190 | 2.0 | 7.0 | 0.00 | 0.00 | 0.00 | 37 | 1012.5 |
| 20260505163103 | 88 | 0 | 2.0 | 5.0 | 0.00 | 0.00 | 0.00 | 37 | 1012.2 |
| 20260505163051 | 88 | 190 | 0.0 | 5.0 | 0.00 | 0.00 | 0.00 | 37 | 1012.6 |
| 20260505162551 | 89 | 190 | 1.0 | 5.0 | 0.00 | 0.00 | 0.00 | 37 | 1012.7 |
| 20260505162050 | 88 | 190 | 0.0 | 7.0 | 0.00 | 0.00 | 0.00 | 38 | 1012.8 |
| 20260505161609 | 87 | 190 | 1.0 | 5.0 | 0.00 | 0.00 | 0.00 | 39 | 1012.5 |
| 20260505161605 | 87 | 190 | 1.0 | 7.0 | 0.00 | 0.00 | 0.00 | 39 | 1012.8 |
| 20260505161048 | 87 | 190 | 1.0 | 5.0 | 0.00 | 0.00 | 0.00 | 40 | 1012.9 |
| 20260505160548 | 87 | 190 | 1.0 | 5.0 | 0.00 | 0.00 | 0.00 | 40 | 1012.9 |
| 20260505153058 | 85 | 0 | 3.0 | 5.0 | 0.00 | 0.00 | 0.00 | 42 | 1012.6 |
| 20260505153041 | 85 | 190 | 2.0 | 5.0 | 0.00 | 0.00 | 0.00 | 43 | 1013.0 |
| 20260505152540 | 84 | 190 | 0.0 | 5.0 | 0.00 | 0.00 | 0.00 | 44 | 1013.1 |
| 20260505152038 | 84 | 190 | 2.0 | 4.0 | 0.00 | 0.00 | 0.00 | 44 | 1013.2 |
| 20260505151558 | 84 | 0 | 0.0 | 5.0 | 0.00 | 0.00 | 0.00 | 45 | 1012.9 |
| 20260505151538 | 84 | 190 | 0.0 | 5.0 | 0.00 | 0.00 | 0.00 | 45 | 1013.3 |
| 20260505151037 | 84 | 190 | 1.0 | 5.0 | 0.00 | 0.00 | 0.00 | 46 | 1013.3 |
| 20260505150537 | 83 | 190 | 1.0 | 4.0 | 0.00 | 0.00 | 0.00 | 46 | 1013.4 |
| 20260505150107 | 83 | 0 | 0.0 | 3.0 | 0.00 | 0.00 | 0.00 | 46 | 1012.9 |
| 20260505140530 | 77 | 190 | 0.0 | 0.0 | 0.00 | 0.00 | 0.00 | 54 | 1013.3 |
| 20260505130111 | 73 | 0 | 0.0 | 0.0 | 0.00 | 0.00 | 0.00 | 59 | 1012.2 |
| 20260505125023 | 72 | 190 | 0.0 | 0.0 | 0.00 | 0.00 | 0.00 | 59 | 1012.7 |
| 20260505124601 | 72 | 0 | 0.0 | 0.0 | 0.00 | 0.00 | 0.00 | 59 | 1012.0 |
| 20260505124522 | 72 | 190 | 0.0 | 0.0 | 0.00 | 0.00 | 0.00 | 60 | 1012.6 |
| 20260505124021 | 72 | 190 | 0.0 | 0.0 | 0.00 | 0.00 | 0.00 | 60 | 1012.5 |
| 20260505123519 | 72 | 190 | 0.0 | 0.0 | 0.00 | 0.00 | 0.00 | 60 | 1012.5 |
| 20260505123102 | 72 | 0 | 0.0 | 0.0 | 0.00 | 0.00 | 0.00 | 60 | 1011.9 |
| 20260505123019 | 72 | 190 | 0.0 | 0.0 | 0.00 | 0.00 | 0.00 | 60 | 1012.4 |
| 20260505122518 | 72 | 190 | 0.0 | 0.0 | 0.00 | 0.00 | 0.00 | 60 | 1012.3 |
| 20260505122017 | 72 | 190 | 0.0 | 0.0 | 0.00 | 0.00 | 0.00 | 60 | 1012.2 |
| 20260505121559 | 72 | 0 | 0.0 | 0.0 | 0.00 | 0.00 | 0.00 | 59 | 1011.6 |
| 20260505121518 | 72 | 190 | 0.0 | 0.0 | 0.00 | 0.00 | 0.00 | 59 | 1012.2 |
| 20260505121015 | 72 | 190 | 0.0 | 0.0 | 0.00 | 0.00 | 0.00 | 59 | 1012.1 |
| 20260505120515 | 72 | 190 | 0.0 | 0.0 | 0.00 | 0.00 | 0.00 | 59 | 1012.0 |
| 20260505120104 | 72 | 0 | 0.0 | 2.0 | 0.00 | 0.00 | 0.00 | 58 | 1011.4 |
| 20260505120042 | 72 | 190 | 0.0 | 0.0 | 0.00 | 0.00 | 0.00 | 59 | 1012.0 |
| 20260505115516 | 72 | 190 | 0.0 | 2.0 | 0.00 | 0.00 | 0.00 | 59 | 1011.9 |
| 20260505115012 | 72 | 190 | 0.0 | 2.0 | 0.00 | 0.00 | 0.00 | 58 | 1011.8 |
| 20260505114558 | 73 | 0 | 0.0 | 2.0 | 0.00 | 0.00 | 0.00 | 58 | 1011.2 |
| 20260505114512 | 73 | 190 | 0.0 | 2.0 | 0.00 | 0.00 | 0.00 | 58 | 1011.8 |
| 20260505114010 | 73 | 190 | 0.0 | 0.0 | 0.00 | 0.00 | 0.00 | 58 | 1011.7 |
| 20260505113508 | 73 | 190 | 0.0 | 2.0 | 0.00 | 0.00 | 0.00 | 58 | 1011.6 |
| 20260505113115 | 73 | 0 | 0.0 | 2.0 | 0.00 | 0.00 | 0.00 | 57 | 1011.1 |
| 20260505113007 | 73 | 190 | 0.0 | 2.0 | 0.00 | 0.00 | 0.00 | 58 | 1011.5 |
| 20260505112506 | 73 | 190 | 0.0 | 2.0 | 0.00 | 0.00 | 0.00 | 57 | 1011.4 |
| 20260505112005 | 73 | 190 | 0.0 | 2.0 | 0.00 | 0.00 | 0.00 | 57 | 1011.3 |
| 20260505111555 | 73 | 190 | 0.0 | 2.0 | 0.00 | 0.00 | 0.00 | 56 | 1010.9 |
| 20260505111506 | 73 | 190 | 0.0 | 2.0 | 0.00 | 0.00 | 0.00 | 57 | 1011.2 |
| 20260505111008 | 73 | 190 | 0.0 | 0.0 | 0.00 | 0.00 | 0.00 | 57 | 1011.3 |
| 20260505110502 | 73 | 190 | 0.0 | 0.0 | 0.00 | 0.00 | 0.00 | 57 | 1011.1 |
| 20260505110118 | 74 | 0 | 0.0 | 0.0 | 0.00 | 0.00 | 0.00 | 56 | 1010.8 |
| 20260505102056 | 75 | 190 | 0.0 | 0.0 | 0.00 | 0.00 | 0.00 | 55 | 1010.9 |
| 20260505101600 | 75 | 0 | 0.0 | 0.0 | 0.00 | 0.00 | 0.00 | 55 | 1010.3 |
| 20260505101556 | 75 | 190 | 0.0 | 0.0 | 0.00 | 0.00 | 0.00 | 55 | 1010.8 |
| 20260505101054 | 75 | 190 | 0.0 | 0.0 | 0.00 | 0.00 | 0.00 | 56 | 1010.8 |
| 20260505100552 | 75 | 190 | 0.0 | 0.0 | 0.00 | 0.00 | 0.00 | 55 | 1010.8 |
| 20260505100057 | 75 | 0 | 0.0 | 0.0 | 0.00 | 0.00 | 0.00 | 54 | 1010.3 |
| 20260505100053 | 75 | 190 | 0.0 | 0.0 | 0.00 | 0.00 | 0.00 | 54 | 1010.8 |
| 20260505095552 | 75 | 190 | 0.0 | 0.0 | 0.00 | 0.00 | 0.00 | 54 | 1010.7 |
| 20260505095051 | 76 | 190 | 0.0 | 0.0 | 0.00 | 0.00 | 0.00 | 53 | 1010.7 |
| 20260505094616 | 76 | 0 | 0.0 | 0.0 | 0.00 | 0.00 | 0.00 | 53 | 1010.3 |
| 20260505094551 | 76 | 190 | 0.0 | 0.0 | 0.00 | 0.00 | 0.00 | 53 | 1010.8 |
| 20260505094034 | 76 | 190 | 0.0 | 0.0 | 0.00 | 0.00 | 0.00 | 53 | 1010.8 |
| 20260505093532 | 76 | 190 | 0.0 | 0.0 | 0.00 | 0.00 | 0.00 | 53 | 1010.7 |
| 20260505093100 | 76 | 0 | 0.0 | 1.0 | 0.00 | 0.00 | 0.00 | 53 | 1010.3 |
| 20260505093033 | 75 | 190 | 0.0 | 1.0 | 0.00 | 0.00 | 0.00 | 53 | 1010.8 |
| 20260505092532 | 75 | 190 | 0.0 | 1.0 | 0.00 | 0.00 | 0.00 | 53 | 1010.8 |
| 20260505092031 | 76 | 190 | 0.0 | 1.0 | 0.00 | 0.00 | 0.00 | 53 | 1010.8 |
| 20260505091612 | 76 | 0 | 0.0 | 2.0 | 0.00 | 0.00 | 0.00 | 52 | 1010.2 |
| 20260505091531 | 76 | 190 | 0.0 | 1.0 | 0.00 | 0.00 | 0.00 | 53 | 1010.7 |
| 20260505091029 | 76 | 190 | 0.0 | 2.0 | 0.00 | 0.00 | 0.00 | 53 | 1010.5 |
| 20260505090529 | 76 | 190 | 0.0 | 3.0 | 0.00 | 0.00 | 0.00 | 52 | 1010.5 |
| 20260505090106 | 76 | 0 | 1.0 | 3.0 | 0.00 | 0.00 | 0.00 | 51 | 1010.1 |
| 20260505090039 | 76 | 190 | 1.0 | 3.0 | 0.00 | 0.00 | 0.00 | 52 | 1010.6 |
| 20260505085527 | 77 | 190 | 0.0 | 3.0 | 0.00 | 0.00 | 0.00 | 51 | 1010.5 |
| 20260505085027 | 77 | 190 | 0.0 | 3.0 | 0.00 | 0.00 | 0.00 | 51 | 1010.4 |